Regional Weather Roundup
Issued by NWS

Home | Current Version | Previous Version | Text Only | Print | Product List | Glossary On
Versions: 1 2 3 4 5 6 7 8 9 10 11 12 13 14 15 16 17 18 19 20 21 22 23 24 25 26 27
000
ASUS45 KSLC 240310
RWRUT

UTAH REGIONAL WEATHER ROUNDUP
NATIONAL WEATHER SERVICE SALT LAKE CITY UT
900 PM MDT SAT JUL 23 2016

UTZ001>011-023>025-240400-

NORTHERN UTAH

CITY           SKY/WX    TMP DP  RH WIND       PRES   REMARKS
BRIGHAM CITY     N/A     82  31  16 SE5       30.03S
HILL AFB       CLEAR     83  23  10 N3        30.06S
LOGAN          CLEAR     73  45  36 N10       30.04R
OGDEN          CLEAR     81  22  11 N3        30.03S
PROVO AIRPORT  CLEAR     79  55  44 NW12      30.02R
SALT LAKE CITY PTCLDY    85  30  13 N5        30.01S
VERNAL         CLEAR     82  32  16 N7        30.04R
WENDOVER       CLEAR     86  27  11 CALM      30.02R
HEBER CITY     CLEAR     72  34  25 S3        30.10R

$$

UTZ012>022-026-027-240400-

SOUTHERN/CENTRAL UTAH

CITY           SKY/WX    TMP DP  RH WIND       PRES   REMARKS
BLANDING       CLEAR     81  45  28 N8        30.18R
BRYCE CANYON   PTCLDY    75  31  19 SW12      30.27R
CEDAR CITY     CLEAR     86  28  12 S12       30.07R
DELTA          CLEAR     86  23  10 N8        29.99S
MILFORD        CLEAR     90  32  12 CALM      29.98R
MOAB/CYNLANDS  MOCLDY    91  40  16 SE12      29.95F
PRICE          CLEAR     83  24  11 NW9       30.09S
ST GEORGE      CLEAR    102  36  10 W8        29.84R HX  96

$$

REGIONAL REPORTS     COLORADO/ARIZONA

CITY           SKY/WX    TMP DP  RH WIND       PRES   REMARKS
CRAIG, CO      CLOUDY    79  35  20 SW15G23   30.14R
GRAND JUNCTION PTCLDY    88  43  20 NW3       29.99R
RIFLE          CLEAR     82  39  21 CALM      30.10R
MONTROSE       CLOUDY    80  46  30 S7        30.10S
CORTEZ         CLOUDY    76  45  33 E5        30.12R
PAGE, AZ       PTCLDY    99  36  11 W6G16     29.92R HX  93
GRAND CANYON   CLOUDY    82  42  24 S12       30.21R
KINGMAN        CLEAR     95  47  19 SW14      29.93S HX  91
FLAGSTAFF      CLOUDY    75  40  28 VRB5G18   30.30F

$$

REGIONAL REPORTS    NEVADA/IDAHO/WYOMING

CITY           SKY/WX    TMP DP  RH WIND       PRES   REMARKS
LAS VEGAS, NV  CLEAR    106  26   6 SW10      29.72R HX  98
ELY            CLEAR     84  13   7 N10       30.12R
ELKO           CLEAR     79  16   9 W6        30.08S
POCATELLO, ID  CLEAR     73  33  23 SW12      30.09R
BURLEY         CLEAR     68  43  40 SW9       30.07R
EVANSTON, WY   CLEAR     69  20  15 W8        30.25R
ROCK SPRINGS   CLEAR     75  14  10 NW10      30.20R
KEMMERER         N/A    N/A N/A N/A NW10      30.26S

$$




USA.gov is the U.S. government's official web portal to all federal, state and local government web resources and services.